Time,TemperatureF,DewpointF,PressureIn,WindDirection,WindDirectionDegrees,WindSpeedMPH,WindSpeedGustMPH,Humidity,HourlyPrecipIn,Conditions,Clouds,dailyrainin,SoftwareType,DateUTC
2013-01-17 00:03:00,39.6,26.9,30.25,WNW,290,3.2,4.2,60,0.00,,---,0.00,VWS V14.01,2013-01-17 06:03:00,
2013-01-17 00:08:00,39.6,26.5,30.25,WNW,290,2.2,4.2,59,0.00,,---,0.00,VWS V14.01,2013-01-17 06:08:00,
2013-01-17 00:13:00,39.6,26.5,30.25,WNW,290,3.2,3.2,59,0.00,,---,0.00,VWS V14.01,2013-01-17 06:13:00,
2013-01-17 00:18:00,39.8,27.5,30.25,WNW,290,2.2,2.2,61,0.00,,---,0.00,VWS V14.01,2013-01-17 06:18:00,
2013-01-17 00:23:00,39.6,27.3,30.25,WNW,290,3.2,3.2,61,0.00,,---,0.00,VWS V14.01,2013-01-17 06:23:00,
2013-01-17 00:28:00,39.6,27.3,30.25,WNW,290,2.2,4.2,61,0.00,,---,0.00,VWS V14.01,2013-01-17 06:28:00,
2013-01-17 00:33:00,39.3,27.0,30.26,WNW,290,2.2,3.2,61,0.00,,---,0.00,VWS V14.01,2013-01-17 06:33:00,
2013-01-17 00:38:00,39.2,27.3,30.26,WNW,290,2.2,3.2,62,0.00,,---,0.00,VWS V14.01,2013-01-17 06:38:00,
2013-01-17 00:43:00,39.1,26.8,30.26,WNW,290,1.2,2.2,61,0.00,,---,0.00,VWS V14.01,2013-01-17 06:43:00,
2013-01-17 00:48:00,39.1,28.0,30.26,WNW,290,1.2,1.2,64,0.00,,---,0.00,VWS V14.01,2013-01-17 06:48:00,
2013-01-17 00:53:00,38.9,27.4,30.26,WNW,290,1.2,1.2,63,0.00,,---,0.00,VWS V14.01,2013-01-17 06:53:00,
2013-01-17 00:58:00,38.6,27.1,30.26,WNW,290,1.2,1.2,63,0.00,,---,0.00,VWS V14.01,2013-01-17 06:58:00,
2013-01-17 01:03:00,38.5,27.0,30.26,WNW,290,3.2,3.2,63,0.00,,---,0.00,VWS V14.01,2013-01-17 07:03:00,
2013-01-17 01:08:00,38.5,27.0,30.26,WNW,290,1.2,2.2,63,0.00,,---,0.00,VWS V14.01,2013-01-17 07:08:00,
2013-01-17 01:13:00,38.5,27.0,30.26,WNW,290,2.2,3.2,63,0.00,,---,0.00,VWS V14.01,2013-01-17 07:13:00,
2013-01-17 01:18:00,38.3,26.8,30.26,WNW,290,2.2,4.2,63,0.00,,---,0.00,VWS V14.01,2013-01-17 07:18:00,
2013-01-17 01:23:00,38.5,27.0,30.26,WNW,290,2.2,3.2,63,0.00,,---,0.00,VWS V14.01,2013-01-17 07:23:00,
2013-01-17 01:28:00,38.3,26.8,30.26,WNW,290,2.2,2.2,63,0.00,,---,0.00,VWS V14.01,2013-01-17 07:28:00,
2013-01-17 01:33:00,38.3,26.8,30.26,WNW,290,2.2,2.2,63,0.00,,---,0.00,VWS V14.01,2013-01-17 07:33:00,
2013-01-17 01:38:00,38.2,26.7,30.26,WNW,290,2.2,3.2,63,0.00,,---,0.00,VWS V14.01,2013-01-17 07:38:00,
2013-01-17 01:43:00,38.0,26.5,30.26,WNW,290,2.2,3.2,63,0.00,,---,0.00,VWS V14.01,2013-01-17 07:43:00,
2013-01-17 01:48:00,37.9,26.5,30.27,WNW,290,2.2,3.2,63,0.00,,---,0.00,VWS V14.01,2013-01-17 07:48:00,
2013-01-17 01:53:00,37.9,27.6,30.27,WNW,290,1.2,1.2,66,0.00,,---,0.00,VWS V14.01,2013-01-17 07:53:00,
2013-01-17 01:58:00,37.9,26.5,30.27,WNW,290,2.2,3.2,63,0.00,,---,0.00,VWS V14.01,2013-01-17 07:58:00,
2013-01-17 02:03:00,37.9,26.5,30.27,WNW,290,2.2,3.2,63,0.00,,---,0.00,VWS V14.01,2013-01-17 08:03:00,
2013-01-17 02:08:00,37.8,26.4,30.27,WNW,290,3.2,3.2,63,0.00,,---,0.00,VWS V14.01,2013-01-17 08:08:00,
2013-01-17 02:13:00,37.8,26.0,30.27,WNW,290,3.2,4.2,62,0.00,,---,0.00,VWS V14.01,2013-01-17 08:13:00,
2013-01-17 02:18:00,37.6,26.2,30.27,WNW,290,4.2,4.2,63,0.00,,---,0.00,VWS V14.01,2013-01-17 08:18:00,
2013-01-17 02:23:00,37.8,26.0,30.27,WNW,290,2.2,4.2,62,0.00,,---,0.00,VWS V14.01,2013-01-17 08:23:00,
2013-01-17 02:28:00,37.8,26.4,30.27,WNW,290,3.2,3.2,63,0.00,,---,0.00,VWS V14.01,2013-01-17 08:28:00,
2013-01-17 02:33:00,37.6,26.2,30.27,WNW,290,3.2,4.2,63,0.00,,---,0.00,VWS V14.01,2013-01-17 08:33:00,
2013-01-17 02:38:00,37.5,26.1,30.27,WNW,290,3.2,3.2,63,0.00,,---,0.00,VWS V14.01,2013-01-17 08:38:00,
2013-01-17 02:43:00,37.3,25.9,30.27,WNW,290,3.2,4.2,63,0.00,,---,0.00,VWS V14.01,2013-01-17 08:43:00,
2013-01-17 02:48:00,37.2,26.2,30.27,WNW,290,4.2,4.2,64,0.00,,---,0.00,VWS V14.01,2013-01-17 08:48:00,
2013-01-17 02:53:00,37.2,26.5,30.27,WNW,290,1.2,2.2,65,0.00,,---,0.00,VWS V14.01,2013-01-17 08:53:00,
2013-01-17 02:58:00,37.0,26.3,30.27,WNW,290,2.2,4.2,65,0.00,,---,0.00,VWS V14.01,2013-01-17 08:58:00,
2013-01-17 03:03:00,36.9,26.6,30.26,WNW,290,2.2,4.2,66,0.00,,---,0.00,VWS V14.01,2013-01-17 09:03:00,
2013-01-17 03:08:00,36.8,26.9,30.26,WNW,290,2.2,3.2,67,0.00,,---,0.00,VWS V14.01,2013-01-17 09:08:00,
2013-01-17 03:13:00,36.6,26.7,30.26,WNW,290,4.2,4.2,67,0.00,,---,0.00,VWS V14.01,2013-01-17 09:13:00,
2013-01-17 03:17:00,36.5,27.0,30.27,WNW,290,2.2,3.2,68,0.00,,---,0.00,VWS V14.01,2013-01-17 09:17:00,
2013-01-17 03:22:00,36.3,27.1,30.27,WNW,290,3.2,4.2,69,0.00,,---,0.00,VWS V14.01,2013-01-17 09:22:00,
2013-01-17 03:27:00,36.2,27.0,30.27,WNW,290,2.2,3.2,69,0.00,,---,0.00,VWS V14.01,2013-01-17 09:27:00,
2013-01-17 03:32:00,36.0,27.2,30.27,WNW,290,2.2,2.2,70,0.00,,---,0.00,VWS V14.01,2013-01-17 09:32:00,
2013-01-17 03:37:00,35.9,27.1,30.27,WNW,290,2.2,4.2,70,0.00,,---,0.00,VWS V14.01,2013-01-17 09:37:00,
2013-01-17 03:42:00,35.9,27.1,30.27,WNW,290,2.2,3.2,70,0.00,,---,0.00,VWS V14.01,2013-01-17 09:42:00,
2013-01-17 03:47:00,35.8,27.0,30.27,WNW,290,1.2,2.2,70,0.00,,---,0.00,VWS V14.01,2013-01-17 09:47:00,
2013-01-17 03:52:00,35.8,27.0,30.27,WNW,290,1.2,1.2,70,0.00,,---,0.00,VWS V14.01,2013-01-17 09:52:00,
2013-01-17 03:57:00,35.6,26.8,30.27,WNW,290,1.2,1.2,70,0.00,,---,0.00,VWS V14.01,2013-01-17 09:57:00,
2013-01-17 04:02:00,35.6,26.8,30.28,WNW,290,1.2,1.2,70,0.00,,---,0.00,VWS V14.01,2013-01-17 10:02:00,
2013-01-17 04:07:00,35.6,26.8,30.28,WNW,290,1.2,1.2,70,0.00,,---,0.00,VWS V14.01,2013-01-17 10:07:00,
2013-01-17 04:12:00,35.8,27.0,30.28,WNW,290,2.2,3.2,70,0.00,,---,0.00,VWS V14.01,2013-01-17 10:12:00,
2013-01-17 04:17:00,35.9,27.1,30.27,WNW,290,2.2,3.2,70,0.00,,---,0.00,VWS V14.01,2013-01-17 10:17:00,
2013-01-17 04:22:00,35.9,27.4,30.27,WNW,290,1.2,2.2,71,0.00,,---,0.00,VWS V14.01,2013-01-17 10:22:00,
2013-01-17 04:27:00,35.9,27.1,30.27,WNW,290,3.2,3.2,70,0.00,,---,0.00,VWS V14.01,2013-01-17 10:27:00,
2013-01-17 04:32:00,35.9,27.1,30.28,WNW,290,2.2,4.2,70,0.00,,---,0.00,VWS V14.01,2013-01-17 10:32:00,
2013-01-17 04:37:00,35.9,27.1,30.28,WNW,290,1.2,3.2,70,0.00,,---,0.00,VWS V14.01,2013-01-17 10:37:00,
2013-01-17 04:42:00,35.9,27.1,30.28,WNW,290,1.2,3.2,70,0.00,,---,0.00,VWS V14.01,2013-01-17 10:42:00,
2013-01-17 04:47:00,35.8,27.0,30.28,WNW,290,1.2,2.2,70,0.00,,---,0.00,VWS V14.01,2013-01-17 10:47:00,
2013-01-17 04:52:00,35.8,27.3,30.28,WNW,290,1.2,2.2,71,0.00,,---,0.00,VWS V14.01,2013-01-17 10:52:00,
2013-01-17 04:57:00,35.8,27.3,30.28,WNW,290,2.2,2.2,71,0.00,,---,0.00,VWS V14.01,2013-01-17 10:57:00,
2013-01-17 05:02:00,35.6,27.1,30.27,WNW,290,1.2,2.2,71,0.00,,---,0.00,VWS V14.01,2013-01-17 11:02:00,
2013-01-17 05:07:00,35.8,27.3,30.27,WNW,290,2.2,2.2,71,0.00,,---,0.00,VWS V14.01,2013-01-17 11:07:00,
2013-01-17 05:12:00,35.9,27.1,30.27,WNW,290,3.2,3.2,70,0.00,,---,0.00,VWS V14.01,2013-01-17 11:12:00,
2013-01-17 05:17:00,36.5,27.7,30.27,WNW,290,2.2,4.2,70,0.00,,---,0.00,VWS V14.01,2013-01-17 11:17:00,
2013-01-17 05:22:00,36.9,27.0,30.27,WNW,290,3.2,4.2,67,0.00,,---,0.00,VWS V14.01,2013-01-17 11:22:00,
2013-01-17 05:27:00,37.2,27.3,30.27,WNW,290,2.2,3.2,67,0.00,,---,0.00,VWS V14.01,2013-01-17 11:27:00,
2013-01-17 05:32:00,37.5,27.2,30.27,WNW,290,2.2,4.2,66,0.00,,---,0.00,VWS V14.01,2013-01-17 11:32:00,
2013-01-17 05:37:00,37.9,26.8,30.27,WNW,290,4.2,4.2,64,0.00,,---,0.00,VWS V14.01,2013-01-17 11:37:00,
2013-01-17 05:42:00,38.0,26.5,30.27,WNW,290,1.2,3.2,63,0.00,,---,0.00,VWS V14.01,2013-01-17 11:42:00,
2013-01-17 05:47:00,38.2,27.1,30.29,WNW,290,2.2,4.2,64,0.00,,---,0.00,VWS V14.01,2013-01-17 11:47:00,
2013-01-17 05:52:00,38.2,27.5,30.29,WNW,290,1.2,1.2,65,0.00,,---,0.00,VWS V14.01,2013-01-17 11:52:00,
2013-01-17 05:57:00,37.9,27.2,30.29,WNW,290,1.2,1.2,65,0.00,,---,0.00,VWS V14.01,2013-01-17 11:57:00,
2013-01-17 06:02:00,37.8,27.5,30.29,WNW,290,1.2,2.2,66,0.00,,---,0.00,VWS V14.01,2013-01-17 12:02:00,
2013-01-17 06:07:00,37.6,27.3,30.29,WNW,290,1.2,2.2,66,0.00,,---,0.00,VWS V14.01,2013-01-17 12:07:00,
2013-01-17 06:12:00,37.5,27.2,30.29,WNW,290,3.2,3.2,66,0.00,,---,0.00,VWS V14.01,2013-01-17 12:12:00,
2013-01-17 06:17:00,37.5,27.5,30.29,WNW,290,2.2,4.2,67,0.00,,---,0.00,VWS V14.01,2013-01-17 12:17:00,
2013-01-17 06:22:00,37.6,27.6,30.29,WNW,290,1.2,3.2,67,0.00,,---,0.00,VWS V14.01,2013-01-17 12:22:00,
2013-01-17 06:27:00,37.6,27.6,30.29,WNW,290,2.2,3.2,67,0.00,,---,0.00,VWS V14.01,2013-01-17 12:27:00,
2013-01-17 06:32:00,37.8,27.8,30.29,WNW,290,2.2,4.2,67,0.00,,---,0.00,VWS V14.01,2013-01-17 12:32:00,
2013-01-17 06:37:00,37.9,27.9,30.29,WNW,290,4.2,4.2,67,0.00,,---,0.00,VWS V14.01,2013-01-17 12:37:00,
2013-01-17 06:42:00,38.0,27.7,30.29,WNW,290,4.2,4.2,66,0.00,,---,0.00,VWS V14.01,2013-01-17 12:42:00,
2013-01-17 06:47:00,38.2,27.5,30.30,WNW,290,2.2,4.2,65,0.00,,---,0.00,VWS V14.01,2013-01-17 12:47:00,
2013-01-17 06:52:00,38.5,27.4,30.30,WNW,290,2.2,3.2,64,0.00,,---,0.00,VWS V14.01,2013-01-17 12:52:00,
2013-01-17 06:57:00,38.6,27.1,30.30,WNW,290,3.2,4.2,63,0.00,,---,0.00,VWS V14.01,2013-01-17 12:57:00,
2013-01-17 07:02:00,38.6,27.1,30.31,WNW,290,4.2,4.2,63,0.00,,---,0.00,VWS V14.01,2013-01-17 13:02:00,
2013-01-17 07:07:00,38.6,27.1,30.31,WNW,290,3.2,5.2,63,0.00,,---,0.00,VWS V14.01,2013-01-17 13:07:00,
2013-01-17 07:12:00,38.8,27.3,30.31,WNW,290,3.2,4.2,63,0.00,,---,0.00,VWS V14.01,2013-01-17 13:12:00,
2013-01-17 07:17:00,38.8,28.1,30.31,WNW,290,3.2,4.2,65,0.00,,---,0.00,VWS V14.01,2013-01-17 13:17:00,
2013-01-17 07:22:00,38.8,27.7,30.31,WNW,290,3.2,5.2,64,0.00,,---,0.00,VWS V14.01,2013-01-17 13:22:00,
2013-01-17 07:27:00,38.8,27.7,30.31,WNW,290,2.2,4.2,64,0.00,,---,0.00,VWS V14.01,2013-01-17 13:27:00,
2013-01-17 07:32:00,39.1,27.6,30.32,WNW,290,4.2,4.2,63,0.00,,---,0.00,VWS V14.01,2013-01-17 13:32:00,
2013-01-17 07:37:00,39.5,28.0,30.32,WNW,290,3.2,4.2,63,0.00,,---,0.00,VWS V14.01,2013-01-17 13:37:00,
2013-01-17 07:42:00,40.1,28.1,30.32,WNW,290,2.2,4.2,62,0.00,,---,0.00,VWS V14.01,2013-01-17 13:42:00,
2013-01-17 07:47:00,40.2,29.0,30.32,WNW,290,3.2,4.2,64,0.00,,---,0.00,VWS V14.01,2013-01-17 13:47:00,
2013-01-17 07:52:00,40.3,29.1,30.32,WNW,294,2.2,5.2,64,0.00,,---,0.00,VWS V14.01,2013-01-17 13:52:00,
2013-01-17 07:57:00,40.3,29.1,30.32,WNW,294,4.2,4.2,64,0.00,,---,0.00,VWS V14.01,2013-01-17 13:57:00,
2013-01-17 08:02:00,40.5,29.7,30.33,WNW,294,1.2,4.2,65,0.00,,---,0.00,VWS V14.01,2013-01-17 14:02:00,
2013-01-17 08:07:00,40.9,29.7,30.33,WNW,294,3.2,5.2,64,0.00,,---,0.00,VWS V14.01,2013-01-17 14:07:00,
2013-01-17 08:12:00,41.3,29.7,30.33,WNW,294,1.2,5.2,63,0.00,,---,0.00,VWS V14.01,2013-01-17 14:12:00,
2013-01-17 08:17:00,41.9,30.2,30.33,WNW,294,1.2,4.2,63,0.00,,---,0.00,VWS V14.01,2013-01-17 14:17:00,
2013-01-17 08:22:00,42.6,30.9,30.33,WNW,294,2.2,2.2,63,0.00,,---,0.00,VWS V14.01,2013-01-17 14:22:00,
2013-01-17 08:27:00,43.3,30.8,30.33,WNW,294,4.2,6.2,61,0.00,,---,0.00,VWS V14.01,2013-01-17 14:27:00,
2013-01-17 08:32:00,44.2,31.6,30.35,WNW,294,1.2,5.2,61,0.00,,---,0.00,VWS V14.01,2013-01-17 14:32:00,
2013-01-17 08:37:00,44.9,32.3,30.35,WNW,294,4.2,4.2,61,0.00,,---,0.00,VWS V14.01,2013-01-17 14:37:00,
2013-01-17 08:42:00,46.0,33.3,30.35,NW,319,3.2,5.2,61,0.00,,---,0.00,VWS V14.01,2013-01-17 14:42:00,
2013-01-17 08:47:00,46.8,33.2,30.35,NW,326,5.2,8.2,59,0.00,,---,0.00,VWS V14.01,2013-01-17 14:47:00,
2013-01-17 08:52:00,47.4,33.4,30.35,NW,319,5.2,8.2,58,0.00,,---,0.00,VWS V14.01,2013-01-17 14:52:00,
2013-01-17 08:57:00,47.9,33.8,30.35,North,350,5.2,7.2,58,0.00,,---,0.00,VWS V14.01,2013-01-17 14:57:00,
2013-01-17 09:02:00,48.3,34.2,30.36,North,350,5.2,7.2,58,0.00,,---,0.00,VWS V14.01,2013-01-17 15:02:00,
2013-01-17 09:07:00,48.5,34.4,30.36,NNW,327,7.2,8.2,58,0.00,,---,0.00,VWS V14.01,2013-01-17 15:07:00,
2013-01-17 09:12:00,48.8,34.7,30.36,NNW,333,7.2,8.2,58,0.00,,---,0.00,VWS V14.01,2013-01-17 15:12:00,
2013-01-17 09:17:00,48.9,34.8,30.36,NW,306,10.2,11.2,58,0.00,,---,0.00,VWS V14.01,2013-01-17 15:17:00,
2013-01-17 09:22:00,49.2,35.1,30.36,NNW,338,5.2,7.2,58,0.00,,---,0.00,VWS V14.01,2013-01-17 15:22:00,
2013-01-17 09:27:00,49.4,34.8,30.36,NNW,348,5.2,8.2,57,0.00,,---,0.00,VWS V14.01,2013-01-17 15:27:00,
2013-01-17 09:32:00,49.8,35.2,30.37,NNW,342,4.2,6.2,57,0.00,,---,0.00,VWS V14.01,2013-01-17 15:32:00,
2013-01-17 09:37:00,50.2,35.1,30.37,North,350,10.2,10.2,56,0.00,,---,0.00,VWS V14.01,2013-01-17 15:37:00,
2013-01-17 09:42:00,50.4,35.3,30.37,NNW,339,4.2,10.2,56,0.00,,---,0.00,VWS V14.01,2013-01-17 15:42:00,
2013-01-17 09:47:00,50.7,35.6,30.38,WNW,300,5.2,5.2,56,0.00,,---,0.00,VWS V14.01,2013-01-17 15:47:00,
2013-01-17 09:52:00,51.3,36.2,30.38,NW,321,8.2,8.2,56,0.00,,---,0.00,VWS V14.01,2013-01-17 15:52:00,
2013-01-17 09:57:00,51.4,36.2,30.38,NNW,340,4.2,9.2,56,0.00,,---,0.00,VWS V14.01,2013-01-17 15:57:00,
2013-01-17 10:02:00,51.7,36.1,30.38,NNW,336,7.2,11.2,55,0.00,,---,0.00,VWS V14.01,2013-01-17 16:02:00,
2013-01-17 10:07:00,52.0,36.3,30.38,NW,323,5.2,11.2,55,0.00,,---,0.00,VWS V14.01,2013-01-17 16:07:00,
2013-01-17 10:12:00,52.3,36.2,30.38,NNW,338,4.2,10.2,54,0.00,,---,0.00,VWS V14.01,2013-01-17 16:12:00,
2013-01-17 10:17:00,52.6,36.0,30.38,NW,321,6.2,8.2,53,0.00,,---,0.00,VWS V14.01,2013-01-17 16:17:00,
2013-01-17 10:22:00,52.9,36.7,30.38,NNW,336,6.2,7.2,54,0.00,,---,0.00,VWS V14.01,2013-01-17 16:22:00,
2013-01-17 10:27:00,53.2,36.0,30.38,NNW,346,6.2,9.2,52,0.00,,---,0.00,VWS V14.01,2013-01-17 16:27:00,
2013-01-17 10:32:00,53.6,36.4,30.38,NW,316,3.2,8.2,52,0.00,,---,0.00,VWS V14.01,2013-01-17 16:32:00,
2013-01-17 10:37:00,54.4,37.6,30.38,NW,307,4.2,9.2,53,0.00,,---,0.00,VWS V14.01,2013-01-17 16:37:00,
2013-01-17 10:42:00,54.7,37.4,30.38,NNW,334,5.2,8.2,52,0.00,,---,0.00,VWS V14.01,2013-01-17 16:42:00,
2013-01-17 10:47:00,54.5,37.7,30.38,NNW,340,7.2,11.2,53,0.00,,---,0.00,VWS V14.01,2013-01-17 16:47:00,
2013-01-17 10:52:00,54.8,37.0,30.38,NNW,328,5.2,11.2,51,0.00,,---,0.00,VWS V14.01,2013-01-17 16:52:00,
2013-01-17 10:57:00,55.3,38.0,30.38,NNW,348,6.2,9.2,52,0.00,,---,0.00,VWS V14.01,2013-01-17 16:57:00,
2013-01-17 11:02:00,55.6,38.3,30.38,NNE,24,6.2,8.2,52,0.00,,---,0.00,VWS V14.01,2013-01-17 17:02:00,
2013-01-17 11:07:00,56.0,37.6,30.38,North,355,6.2,13.2,50,0.00,,---,0.00,VWS V14.01,2013-01-17 17:07:00,
2013-01-17 11:12:00,56.2,37.8,30.38,North,351,6.2,10.2,50,0.00,,---,0.00,VWS V14.01,2013-01-17 17:12:00,
2013-01-17 11:17:00,56.3,37.4,30.38,NW,319,7.2,11.2,49,0.00,,---,0.00,VWS V14.01,2013-01-17 17:17:00,
2013-01-17 11:22:00,56.9,38.0,30.38,WNW,290,5.2,6.2,49,0.00,,---,0.00,VWS V14.01,2013-01-17 17:22:00,
2013-01-17 11:27:00,57.2,36.6,30.38,NW,318,7.2,10.2,46,0.00,,---,0.00,VWS V14.01,2013-01-17 17:27:00,
2013-01-17 11:32:00,57.2,37.2,30.37,North,360,7.2,8.2,47,0.00,,---,0.00,VWS V14.01,2013-01-17 17:32:00,
2013-01-17 11:37:00,57.5,37.5,30.37,NNE,15,7.2,7.2,47,0.00,,---,0.00,VWS V14.01,2013-01-17 17:37:00,
2013-01-17 11:42:00,57.8,36.0,30.37,NNW,331,11.2,11.2,44,0.00,,---,0.00,VWS V14.01,2013-01-17 17:42:00,
2013-01-17 11:47:00,58.0,36.8,30.37,NNW,340,5.2,9.2,45,0.00,,---,0.00,VWS V14.01,2013-01-17 17:47:00,
2013-01-17 11:52:00,58.7,36.9,30.37,NNW,331,3.2,8.2,44,0.00,,---,0.00,VWS V14.01,2013-01-17 17:52:00,
2013-01-17 11:57:00,58.9,37.0,30.37,North,355,7.2,10.2,44,0.00,,---,0.00,VWS V14.01,2013-01-17 17:57:00,
2013-01-17 12:02:00,59.5,37.6,30.36,WNW,300,4.2,5.2,44,0.00,,---,0.00,VWS V14.01,2013-01-17 18:02:00,
2013-01-17 12:07:00,59.8,37.3,30.36,NW,319,5.2,6.2,43,0.00,,---,0.00,VWS V14.01,2013-01-17 18:07:00,
2013-01-17 12:12:00,60.1,37.0,30.36,North,355,5.2,10.2,42,0.00,,---,0.00,VWS V14.01,2013-01-17 18:12:00,
2013-01-17 12:17:00,60.2,36.4,30.35,NNE,18,5.2,8.2,41,0.00,,---,0.00,VWS V14.01,2013-01-17 18:17:00,
2013-01-17 12:22:00,60.2,36.4,30.35,NW,306,5.2,8.2,41,0.00,,---,0.00,VWS V14.01,2013-01-17 18:22:00,
2013-01-17 12:27:00,60.4,37.2,30.35,NW,310,7.2,10.2,42,0.00,,---,0.00,VWS V14.01,2013-01-17 18:27:00,
2013-01-17 12:32:00,60.5,36.7,30.35,NNW,338,5.2,7.2,41,0.00,,---,0.00,VWS V14.01,2013-01-17 18:32:00,
2013-01-17 12:37:00,61.2,36.7,30.35,NW,304,3.2,6.2,40,0.00,,---,0.00,VWS V14.01,2013-01-17 18:37:00,
2013-01-17 12:42:00,61.5,37.0,30.35,North,355,5.2,8.2,40,0.00,,---,0.00,VWS V14.01,2013-01-17 18:42:00,
2013-01-17 12:47:00,61.2,37.3,30.34,NNW,335,5.2,6.2,41,0.00,,---,0.00,VWS V14.01,2013-01-17 18:47:00,
2013-01-17 12:52:00,61.2,37.3,30.34,North,350,4.2,9.2,41,0.00,,---,0.00,VWS V14.01,2013-01-17 18:52:00,
2013-01-17 12:57:00,61.2,37.3,30.34,NNW,327,6.2,11.2,41,0.00,,---,0.00,VWS V14.01,2013-01-17 18:57:00,
2013-01-17 13:02:00,61.2,37.3,30.33,NNW,330,6.2,8.2,41,0.00,,---,0.00,VWS V14.01,2013-01-17 19:02:00,
2013-01-17 13:07:00,61.5,37.6,30.33,NW,316,4.2,7.2,41,0.00,,---,0.00,VWS V14.01,2013-01-17 19:07:00,
2013-01-17 13:12:00,62.0,37.4,30.33,NW,309,4.2,10.2,40,0.00,,---,0.00,VWS V14.01,2013-01-17 19:12:00,
2013-01-17 13:17:00,62.4,38.4,30.32,NW,313,3.2,8.2,41,0.00,,---,0.00,VWS V14.01,2013-01-17 19:17:00,
2013-01-17 13:22:00,62.7,37.4,30.32,NW,313,5.2,11.2,39,0.00,,---,0.00,VWS V14.01,2013-01-17 19:22:00,
2013-01-17 13:27:00,62.4,38.4,30.32,North,355,7.2,11.2,41,0.00,,---,0.00,VWS V14.01,2013-01-17 19:27:00,
2013-01-17 13:32:00,62.6,38.0,30.31,NNW,336,7.2,8.2,40,0.00,,---,0.00,VWS V14.01,2013-01-17 19:32:00,
2013-01-17 13:37:00,62.6,38.0,30.31,NNW,336,6.2,10.2,40,0.00,,---,0.00,VWS V14.01,2013-01-17 19:37:00,
2013-01-17 13:42:00,62.7,38.7,30.31,North,9,5.2,13.2,41,0.00,,---,0.00,VWS V14.01,2013-01-17 19:42:00,
2013-01-17 13:47:00,62.9,38.2,30.30,NNW,346,5.2,10.2,40,0.00,,---,0.00,VWS V14.01,2013-01-17 19:47:00,
2013-01-17 13:52:00,63.2,39.1,30.30,North,9,5.2,10.2,41,0.00,,---,0.00,VWS V14.01,2013-01-17 19:52:00,
2013-01-17 13:57:00,63.5,38.8,30.30,NW,310,5.2,7.2,40,0.00,,---,0.00,VWS V14.01,2013-01-17 19:57:00,
2013-01-17 14:02:00,63.9,39.8,30.30,North,5,5.2,7.2,41,0.00,,---,0.00,VWS V14.01,2013-01-17 20:02:00,
2013-01-17 14:07:00,63.9,39.8,30.30,NNW,343,5.2,7.2,41,0.00,,---,0.00,VWS V14.01,2013-01-17 20:07:00,
2013-01-17 14:12:00,63.9,38.5,30.30,NW,317,4.2,8.2,39,0.00,,---,0.00,VWS V14.01,2013-01-17 20:12:00,
2013-01-17 14:17:00,63.9,39.1,30.30,NNE,23,4.2,6.2,40,0.00,,---,0.00,VWS V14.01,2013-01-17 20:17:00,
2013-01-17 14:22:00,64.0,39.2,30.30,NNW,345,3.2,8.2,40,0.00,,---,0.00,VWS V14.01,2013-01-17 20:22:00,
2013-01-17 14:27:00,64.0,39.2,30.30,North,360,6.2,9.2,40,0.00,,---,0.00,VWS V14.01,2013-01-17 20:27:00,
2013-01-17 14:32:00,63.9,39.1,30.30,North,355,3.2,8.2,40,0.00,,---,0.00,VWS V14.01,2013-01-17 20:32:00,
2013-01-17 14:35:00,64.2,40.0,30.30,North,0,5.2,12.2,41,0.00,,---,0.00,VWS V14.01,2013-01-17 20:35:00,
2013-01-17 14:49:00,64.7,39.8,30.30,NW,314,5.2,9.2,40,0.00,,---,0.00,VWS V14.01,2013-01-17 20:49:00,
2013-01-17 14:54:00,64.8,40.6,30.30,NNW,348,6.2,10.2,41,0.00,,---,0.00,VWS V14.01,2013-01-17 20:54:00,
2013-01-17 14:59:00,64.3,39.5,30.30,North,350,5.2,8.2,40,0.00,,---,0.00,VWS V14.01,2013-01-17 20:59:00,
2013-01-17 15:04:00,64.2,40.0,30.30,North,11,6.2,11.2,41,0.00,,---,0.00,VWS V14.01,2013-01-17 21:04:00,
2013-01-17 15:10:00,64.2,40.0,30.30,North,5,11.2,11.2,41,0.00,,---,0.00,VWS V14.01,2013-01-17 21:10:00,
2013-01-17 15:15:00,64.2,40.0,30.30,ENE,62,7.2,8.2,41,0.00,,---,0.00,VWS V14.01,2013-01-17 21:15:00,
2013-01-17 15:20:00,63.7,40.8,30.30,NE,46,7.2,11.2,43,0.00,,---,0.00,VWS V14.01,2013-01-17 21:20:00,
2013-01-17 15:25:00,63.4,39.9,30.30,NE,53,7.2,10.2,42,0.00,,---,0.00,VWS V14.01,2013-01-17 21:25:00,
2013-01-17 15:30:00,63.5,40.0,30.30,NE,53,7.2,10.2,42,0.00,,---,0.00,VWS V14.01,2013-01-17 21:30:00,
2013-01-17 15:35:00,63.4,39.9,30.30,NE,51,5.2,8.2,42,0.00,,---,0.00,VWS V14.01,2013-01-17 21:35:00,
2013-01-17 15:40:00,63.5,40.0,30.30,ENE,61,5.2,9.2,42,0.00,,---,0.00,VWS V14.01,2013-01-17 21:40:00,
2013-01-17 15:45:00,63.1,39.0,30.30,ENE,61,5.2,10.2,41,0.00,,---,0.00,VWS V14.01,2013-01-17 21:45:00,
2013-01-17 15:50:00,62.6,38.6,30.30,East,80,7.2,11.2,41,0.00,,---,0.00,VWS V14.01,2013-01-17 21:50:00,
2013-01-17 15:55:00,62.0,42.1,30.30,East,92,5.2,9.2,48,0.00,,---,0.00,VWS V14.01,2013-01-17 21:55:00,
2013-01-17 16:00:00,61.6,42.3,30.31,ENE,78,6.2,10.2,49,0.00,,---,0.00,VWS V14.01,2013-01-17 22:00:00,
2013-01-17 16:05:00,61.2,41.9,30.31,ESE,106,5.2,8.2,49,0.00,,---,0.00,VWS V14.01,2013-01-17 22:05:00,
2013-01-17 16:10:00,61.0,41.7,30.31,East,100,6.2,10.2,49,0.00,,---,0.00,VWS V14.01,2013-01-17 22:10:00,
2013-01-17 16:15:00,60.9,41.6,30.32,East,84,5.2,8.2,49,0.00,,---,0.00,VWS V14.01,2013-01-17 22:15:00,
2013-01-17 16:20:00,60.5,41.3,30.32,ESE,103,5.2,7.2,49,0.00,,---,0.00,VWS V14.01,2013-01-17 22:20:00,
2013-01-17 16:25:00,60.2,42.0,30.32,East,92,4.2,8.2,51,0.00,,---,0.00,VWS V14.01,2013-01-17 22:25:00,
2013-01-17 16:30:00,59.9,42.2,30.32,NE,53,6.2,7.2,52,0.00,,---,0.00,VWS V14.01,2013-01-17 22:30:00,
2013-01-17 16:35:00,59.5,43.3,30.32,ENE,71,6.2,9.2,55,0.00,,---,0.00,VWS V14.01,2013-01-17 22:35:00,
2013-01-17 16:40:00,59.0,42.9,30.32,East,79,7.2,7.2,55,0.00,,---,0.00,VWS V14.01,2013-01-17 22:40:00,
2013-01-17 16:45:00,59.0,43.8,30.32,East,96,4.2,7.2,57,0.00,,---,0.00,VWS V14.01,2013-01-17 22:45:00,
2013-01-17 16:50:00,58.9,43.2,30.32,ESE,104,5.2,8.2,56,0.00,,---,0.00,VWS V14.01,2013-01-17 22:50:00,
2013-01-17 16:55:00,58.4,43.2,30.32,East,80,4.2,7.2,57,0.00,,---,0.00,VWS V14.01,2013-01-17 22:55:00,
2013-01-17 17:00:00,58.1,43.0,30.33,East,83,2.2,6.2,57,0.00,,---,0.00,VWS V14.01,2013-01-17 23:00:00,
2013-01-17 17:05:00,58.4,43.2,30.33,ESE,104,3.2,6.2,57,0.00,,---,0.00,VWS V14.01,2013-01-17 23:05:00,
2013-01-17 17:10:00,58.6,43.0,30.33,ESE,112,3.2,6.2,56,0.00,,---,0.00,VWS V14.01,2013-01-17 23:10:00,
2013-01-17 17:15:00,58.6,43.4,30.33,ESE,112,3.2,6.2,57,0.00,,---,0.00,VWS V14.01,2013-01-17 23:15:00,
2013-01-17 17:20:00,58.3,43.6,30.33,ESE,111,5.2,5.2,58,0.00,,---,0.00,VWS V14.01,2013-01-17 23:20:00,
2013-01-17 17:25:00,58.0,44.2,30.33,ESE,111,5.2,6.2,60,0.00,,---,0.00,VWS V14.01,2013-01-17 23:25:00,
2013-01-17 17:30:00,57.6,44.3,30.34,ESE,110,3.2,6.2,61,0.00,,---,0.00,VWS V14.01,2013-01-17 23:30:00,
2013-01-17 17:35:00,57.5,44.6,30.34,ESE,110,4.2,5.2,62,0.00,,---,0.00,VWS V14.01,2013-01-17 23:35:00,
2013-01-17 17:40:00,57.2,45.2,30.34,ESE,109,2.2,5.2,64,0.00,,---,0.00,VWS V14.01,2013-01-17 23:40:00,
2013-01-17 17:45:00,57.0,45.4,30.34,ESE,110,1.2,4.2,65,0.00,,---,0.00,VWS V14.01,2013-01-17 23:45:00,
2013-01-17 17:50:00,56.7,45.1,30.34,ESE,110,2.2,5.2,65,0.00,,---,0.00,VWS V14.01,2013-01-17 23:50:00,
2013-01-17 17:55:00,56.5,45.3,30.34,ESE,110,2.2,4.2,66,0.00,,---,0.00,VWS V14.01,2013-01-17 23:55:00,
2013-01-17 18:00:00,56.2,44.6,30.34,ESE,110,2.2,4.2,65,0.00,,---,0.00,VWS V14.01,2013-01-18 00:00:00,
2013-01-17 18:05:00,55.9,44.3,30.35,ESE,110,1.2,3.2,65,0.00,,---,0.00,VWS V14.01,2013-01-18 00:05:00,
2013-01-17 18:10:00,55.6,43.2,30.35,ESE,110,2.2,3.2,63,0.00,,---,0.00,VWS V14.01,2013-01-18 00:10:00,
2013-01-17 18:15:00,55.3,42.5,30.35,ESE,110,2.2,3.2,62,0.00,,---,0.00,VWS V14.01,2013-01-18 00:15:00,
2013-01-17 18:20:00,55.1,43.2,30.35,ESE,110,1.2,2.2,64,0.00,,---,0.00,VWS V14.01,2013-01-18 00:20:00,
2013-01-17 18:25:00,55.0,44.3,30.35,ESE,110,1.2,1.2,67,0.00,,---,0.00,VWS V14.01,2013-01-18 00:25:00,
2013-01-17 18:30:00,54.7,44.7,30.35,ESE,110,2.2,3.2,69,0.00,,---,0.00,VWS V14.01,2013-01-18 00:30:00,
2013-01-17 18:35:00,54.4,45.2,30.36,ESE,110,1.2,1.2,71,0.00,,---,0.00,VWS V14.01,2013-01-18 00:35:00,
2013-01-17 18:40:00,54.2,45.4,30.36,ESE,110,1.2,1.2,72,0.00,,---,0.00,VWS V14.01,2013-01-18 00:40:00,
2013-01-17 18:45:00,54.1,46.0,30.36,ESE,110,1.2,3.2,74,0.00,,---,0.00,VWS V14.01,2013-01-18 00:45:00,
2013-01-17 18:50:00,53.9,45.8,30.36,ESE,110,1.2,1.2,74,0.00,,---,0.00,VWS V14.01,2013-01-18 00:50:00,
2013-01-17 18:55:00,53.8,46.1,30.36,ESE,110,1.2,1.2,75,0.00,,---,0.00,VWS V14.01,2013-01-18 00:55:00,
2013-01-17 19:00:00,53.6,45.9,30.36,ESE,110,1.2,1.2,75,0.00,,---,0.00,VWS V14.01,2013-01-18 01:00:00,
2013-01-17 19:05:00,53.3,45.9,30.36,ESE,110,1.2,1.2,76,0.00,,---,0.00,VWS V14.01,2013-01-18 01:05:00,
2013-01-17 19:10:00,53.2,45.8,30.36,ESE,110,1.2,2.2,76,0.00,,---,0.00,VWS V14.01,2013-01-18 01:10:00,
2013-01-17 19:15:00,52.9,45.5,30.36,ESE,110,3.2,4.2,76,0.00,,---,0.00,VWS V14.01,2013-01-18 01:15:00,
2013-01-17 19:20:00,52.9,45.5,30.37,ESE,110,2.2,4.2,76,0.00,,---,0.00,VWS V14.01,2013-01-18 01:20:00,
2013-01-17 19:25:00,52.8,45.5,30.37,ESE,110,1.2,2.2,76,0.00,,---,0.00,VWS V14.01,2013-01-18 01:25:00,
2013-01-17 19:30:00,52.8,45.8,30.37,ESE,110,1.2,3.2,77,0.00,,---,0.00,VWS V14.01,2013-01-18 01:30:00,
2013-01-17 19:35:00,52.8,45.8,30.37,ESE,110,2.2,2.2,77,0.00,,---,0.00,VWS V14.01,2013-01-18 01:35:00,
2013-01-17 19:40:00,52.6,46.0,30.37,ESE,110,1.2,3.2,78,0.00,,---,0.00,VWS V14.01,2013-01-18 01:40:00,
2013-01-17 19:45:00,52.5,46.2,30.37,ESE,110,1.2,3.2,79,0.00,,---,0.00,VWS V14.01,2013-01-18 01:45:00,
2013-01-17 19:50:00,52.3,46.3,30.38,ESE,110,2.2,3.2,80,0.00,,---,0.00,VWS V14.01,2013-01-18 01:50:00,
2013-01-17 19:55:00,52.3,46.3,30.38,ESE,110,1.2,1.2,80,0.00,,---,0.00,VWS V14.01,2013-01-18 01:55:00,
2013-01-17 20:00:00,52.2,46.5,30.38,ESE,110,1.2,1.2,81,0.00,,---,0.00,VWS V14.01,2013-01-18 02:00:00,
2013-01-17 20:05:00,52.0,46.4,30.38,ESE,110,1.2,1.2,81,0.00,,---,0.00,VWS V14.01,2013-01-18 02:05:00,
2013-01-17 20:10:00,51.9,46.6,30.38,ESE,110,1.2,1.2,82,0.00,,---,0.00,VWS V14.01,2013-01-18 02:10:00,
2013-01-17 20:15:00,51.7,46.4,30.38,ESE,110,1.2,1.2,82,0.00,,---,0.00,VWS V14.01,2013-01-18 02:15:00,
2013-01-17 20:20:00,51.7,46.4,30.38,ESE,110,1.2,1.2,82,0.00,,---,0.00,VWS V14.01,2013-01-18 02:20:00,
2013-01-17 20:25:00,51.6,46.6,30.38,ESE,110,1.2,2.2,83,0.00,,---,0.00,VWS V14.01,2013-01-18 02:25:00,
2013-01-17 20:30:00,51.4,46.4,30.38,ESE,110,1.2,1.2,83,0.00,,---,0.00,VWS V14.01,2013-01-18 02:30:00,
2013-01-17 20:35:00,51.3,46.6,30.38,ESE,110,1.2,1.2,84,0.00,,---,0.00,VWS V14.01,2013-01-18 02:35:00,
2013-01-17 20:40:00,51.0,46.0,30.38,ESE,110,1.2,1.2,83,0.00,,---,0.00,VWS V14.01,2013-01-18 02:40:00,
2013-01-17 20:45:00,50.7,46.0,30.38,ESE,110,1.2,1.2,84,0.00,,---,0.00,VWS V14.01,2013-01-18 02:45:00,
2013-01-17 20:50:00,50.4,45.8,30.38,ESE,110,1.2,1.2,84,0.00,,---,0.00,VWS V14.01,2013-01-18 02:50:00,
2013-01-17 20:55:00,50.2,45.6,30.38,ESE,110,1.2,1.2,84,0.00,,---,0.00,VWS V14.01,2013-01-18 02:55:00,
2013-01-17 21:00:00,49.8,45.2,30.38,ESE,110,1.2,1.2,84,0.00,,---,0.00,VWS V14.01,2013-01-18 03:00:00,
2013-01-17 21:05:00,49.5,44.9,30.39,ESE,110,1.2,1.2,84,0.00,,---,0.00,VWS V14.01,2013-01-18 03:05:00,
2013-01-17 21:10:00,49.1,44.5,30.39,ESE,110,1.2,1.2,84,0.00,,---,0.00,VWS V14.01,2013-01-18 03:10:00,
2013-01-17 21:15:00,48.8,44.2,30.39,ESE,110,1.2,1.2,84,0.00,,---,0.00,VWS V14.01,2013-01-18 03:15:00,
2013-01-17 21:20:00,48.5,43.9,30.39,ESE,110,1.2,1.2,84,0.00,,---,0.00,VWS V14.01,2013-01-18 03:20:00,
2013-01-17 21:25:00,48.0,43.4,30.39,ESE,110,1.2,1.2,84,0.00,,---,0.00,VWS V14.01,2013-01-18 03:25:00,
2013-01-17 21:30:00,47.7,43.1,30.39,ESE,110,1.2,1.2,84,0.00,,---,0.00,VWS V14.01,2013-01-18 03:30:00,
2013-01-17 21:35:00,47.4,42.8,30.39,ESE,110,1.2,1.2,84,0.00,,---,0.00,VWS V14.01,2013-01-18 03:35:00,
2013-01-17 21:40:00,47.1,42.8,30.39,ESE,110,1.2,1.2,85,0.00,,---,0.00,VWS V14.01,2013-01-18 03:40:00,
2013-01-17 21:45:00,47.1,42.8,30.39,ESE,110,1.2,1.2,85,0.00,,---,0.00,VWS V14.01,2013-01-18 03:45:00,
2013-01-17 21:50:00,46.8,42.5,30.39,ESE,110,1.2,1.2,85,0.00,,---,0.00,VWS V14.01,2013-01-18 03:50:00,
2013-01-17 21:55:00,46.7,42.7,30.39,ESE,110,1.2,1.2,86,0.00,,---,0.00,VWS V14.01,2013-01-18 03:55:00,
2013-01-17 22:00:00,46.5,42.5,30.39,ESE,110,1.2,1.2,86,0.00,,---,0.00,VWS V14.01,2013-01-18 04:00:00,
2013-01-17 22:05:00,46.2,42.2,30.39,ESE,110,1.2,1.2,86,0.00,,---,0.00,VWS V14.01,2013-01-18 04:05:00,
2013-01-17 22:10:00,46.1,42.5,30.39,ESE,110,1.2,1.2,87,0.00,,---,0.00,VWS V14.01,2013-01-18 04:10:00,
2013-01-17 22:15:00,46.0,42.3,30.39,ESE,110,1.2,1.2,87,0.00,,---,0.00,VWS V14.01,2013-01-18 04:15:00,
2013-01-17 22:20:00,45.7,42.1,30.39,ESE,110,1.2,1.2,87,0.00,,---,0.00,VWS V14.01,2013-01-18 04:20:00,
2013-01-17 22:25:00,45.5,41.9,30.39,ESE,110,1.2,1.2,87,0.00,,---,0.00,VWS V14.01,2013-01-18 04:25:00,
2013-01-17 22:30:00,45.4,42.1,30.39,ESE,110,1.2,1.2,88,0.00,,---,0.00,VWS V14.01,2013-01-18 04:30:00,
2013-01-17 22:35:00,45.2,41.9,30.39,ESE,110,1.2,1.2,88,0.00,,---,0.00,VWS V14.01,2013-01-18 04:35:00,
2013-01-17 22:40:00,45.1,41.8,30.39,ESE,110,1.2,1.2,88,0.00,,---,0.00,VWS V14.01,2013-01-18 04:40:00,
2013-01-17 22:45:00,44.9,41.6,30.39,ESE,110,1.2,1.2,88,0.00,,---,0.00,VWS V14.01,2013-01-18 04:45:00,
2013-01-17 22:50:00,44.6,41.3,30.39,ESE,110,1.2,1.2,88,0.00,,---,0.00,VWS V14.01,2013-01-18 04:50:00,
2013-01-17 22:54:00,44.6,41.3,30.39,ESE,110,1.2,1.2,88,0.00,,---,0.00,VWS V14.01,2013-01-18 04:54:00,
2013-01-17 22:59:00,44.6,41.3,30.39,ESE,110,1.2,1.2,88,0.00,,---,0.00,VWS V14.01,2013-01-18 04:59:00,
2013-01-17 23:00:00,44.6,41.3,30.39,ESE,110,1.2,1.2,88,0.00,,---,0.00,VWS V14.01,2013-01-18 05:00:00,
2013-01-17 23:01:00,44.6,41.3,30.39,ESE,110,1.2,1.2,88,0.00,,---,0.00,VWS V14.01,2013-01-18 05:01:00,
2013-01-17 23:06:00,44.5,41.5,30.39,ESE,110,1.2,1.2,89,0.00,,---,0.00,VWS V14.01,2013-01-18 05:06:00,
2013-01-17 23:11:00,44.5,41.5,30.39,ESE,110,1.2,1.2,89,0.00,,---,0.00,VWS V14.01,2013-01-18 05:11:00,
2013-01-17 23:16:00,44.5,41.5,30.39,ESE,110,1.2,1.2,89,0.00,,---,0.00,VWS V14.01,2013-01-18 05:16:00,
2013-01-17 23:21:00,44.5,41.5,30.39,ESE,110,1.2,1.2,89,0.00,,---,0.00,VWS V14.01,2013-01-18 05:21:00,
2013-01-17 23:26:00,44.5,41.5,30.39,ESE,110,1.2,1.2,89,0.00,,---,0.00,VWS V14.01,2013-01-18 05:26:00,
2013-01-17 23:31:00,44.3,41.6,30.39,ESE,110,1.2,1.2,90,0.00,,---,0.00,VWS V14.01,2013-01-18 05:31:00,
2013-01-17 23:36:00,44.2,41.5,30.39,ESE,110,1.2,1.2,90,0.00,,---,0.00,VWS V14.01,2013-01-18 05:36:00,
2013-01-17 23:41:00,44.1,41.4,30.39,ESE,110,1.2,1.2,90,0.00,,---,0.00,VWS V14.01,2013-01-18 05:41:00,
2013-01-17 23:46:00,43.9,41.2,30.39,ESE,110,1.2,1.2,90,0.00,,---,0.00,VWS V14.01,2013-01-18 05:46:00,
2013-01-17 23:51:00,43.8,41.1,30.39,ESE,110,1.2,1.2,90,0.00,,---,0.00,VWS V14.01,2013-01-18 05:51:00,
2013-01-17 23:56:00,43.8,41.3,30.39,ESE,110,1.2,1.2,91,0.00,,---,0.00,VWS V14.01,2013-01-18 05:56:00,